"Pseudo-MPEC" for P10OLdL

Created 2019 Jun 15 19:08:15 UT using Find_Orb

Click here for an explanation of pseudo-MPECs

 
 Astrometry: 
     P10OLdL  C2019 03 06.36469 13 41 19.11 +24 10 45.8    ~67Bq 21.0 GVNEOCPG96
     P10OLdL  C2019 03 06.36989 13 41 19.00 +24 10 47.4    ~67Bq 20.9 GVNEOCPG96
     P10OLdL  C2019 03 06.37506 13 41 18.90 +24 10 49.5    ~67Bq 20.9 GVNEOCPG96
     P10OLdL  C2019 03 06.38024 13 41 18.78 +24 10 51.1    ~67Bq 21.1 GVNEOCPG96
     P10OLdL  C2019 04 10J%6$xj47v_$[tWkT6QZttV]3cWJ67a+'?_Yctp`Ytu-+faAqulQyF51
     P10OLdL  C2019 04 10Yn1*_kuFv?5[(/+BB%=)0*DRU@HGK!'@2e%W`%SxCQ,\#O;t2KXWF51
     P10OLdL  C2019 04 10W4wY[[BG[!%uZ2kXUB9bXAstrometryksj#yIZ0]1jr4%i0LJ2QFF51
     P10OLdL  C2019 06 03k%sh5F4t$*MM]dP'],LNYP:dPa\v@0d8EdLL^*012(IvXP3P]9YpF52
     P10OLdL  C2019 06 03js4t4qJ.'4Fyr,]#I5EreWHy._8g/\:D1)o[7PJ8VI0c`gYcVX[vF52
     P10OLdL  C2019 06 03j^uxCg?-$3QipJbPN,wdI8,]!;78+ug]r/V%3j0`0:U!,gJxM-TiF52
     P10OLdL  C2019 06 03#k(.@IFlXLEF6!aG\c;kfQ-gP4N^#Q)_:#/`IAuAcfBJg$3(oSEGF52
     P10OLdL  C2019 06 05:fQNn5RFrk:uTTDvpt=Y`9]MqUgJThe@s95bE5Z7)Uk]TA-N^AhRF51
     P10OLdL  C2019 06 05$;puJ7%?EyX4XIvIR,:i`\whtVBKvuhrn7GI4c'^:PjFEZ`[W(/uF51
     P10OLdL  C2019 06 0586qcfi8Ta9x9JMg]e'hV'36AHm#WB;G9X4)qBDdECWIy^6\JrJS7F51
     P10OLdL  C2019 06 05pO_=,q9rRZ`5+)ZI(WQV?Alim=IG.redacted;sPH6\?O^k[sRK$F51
     P10OLdL KC2019 06 065+(=.HrMip][s^Dl4l(pe1/VG(.r`wWhnsQEX`cOwy[CoI5Qs=(0691
     P10OLdL KC2019 06 06d0s\qp99e2j[1#AtRM.Sp#_Uv9r$J6iCr:9eSXQxnb!i6-bd;;4?691
     P10OLdL KC2019 06 06tNn3L]j;Zb/N'c,2;TtDdI,NGcclick7?7?3J?:bcUBK?J,(WC1l691
     P10OLdL KC2019 06 079/W;_Z=r\97J1dZtsV8'`t^%qIq03(hereNhaEj3(^$,iJ\w86?X691
     P10OLdL KC2019 06 07dW]\[/FH7MvYhB$!for$bYdexplanationdI4g1l_!f=fC!XdHUO691
     P10OLdL KC2019 06 07W5qSmr1URu?UcsBNe'PQDpOyra=tBs$ybu,Unq0l)//VQ]A23s0)691
     P10OLdL KC2019 06 08dUc'P+TT^OjKwa5Q-r`NkTp#AC4KExZb%0n4RPHwVy8EQkpF]J`l691
     P10OLdL KC2019 06 089Nq8LQ!,I@4UJ\RZ\EgEDX;j;@aV2T*)GW4H=PK7?a!3v]XJ#]rD691
     P10OLdL KC2019 06 08x8_T$:9a;pv=gh$En?![;89q=pqCpx[U-`IF!dpw'7XIoWr4XS*q691

Station data:
(691) Steward Observatory, Kitt Peak - Spacewatch  (N31.962174 W111.600327)
   US/Arizona.  Observer J. V. Scotti. 0.9-m f/3 reflector + CCD.
(F51) Pan-STARRS 1, Haleakala  (N20.707235 W156.255910)  US/Hawaii.
   Observers N. Primak, A. Schultz, S. Watters, J. Thiel, T. Goggia. Measurer
   PS1 Science Consortium. 1.8-m Ritchey-Chrétien + CCD.
(F52) Pan-STARRS 2, Haleakala  (N20.707384 W156.255910)  US/Hawaii. 1.8-m
   Ritchey-Chrétien + CCD.
(G96) Mt. Lemmon Survey  (N32.442754 W110.788720)  US/Arizona.  Observers T.
   A. Pruyne, B. M. Africano, E. J. Christensen, G. A. Farneth, D. C. Fuls,
   A. R. Gibbs, A. D. Grauer, H. Groeller, J. A. Johnson, R. A. Kowalski, S.
   M. Larson, G. J. Leonard, R. L. Seaman, F. C. Shelly. 1.5-m reflector +
   10K CCD.

Orbital elements:  P10OLdL
   Perihelion 2024 Oct 30.528247 +/- 4.53 TT = 12:40:40 (JD 2460614.028247)
Epoch 2019 Jun  8.0 TT = JDT 2458642.5   Ju: 0.0029           AutoNEOCP
M 193.68801066 +/- 0.39             (J2000 ecliptic)
n   0.08435688 +/- 5.03e-6          Peri.  260.82584 +/- 0.35
a   5.14899353 +/- 0.000205         Node   102.09897 +/- 0.0027
e   0.0462318 +/- 4.12e-5           Incl.   27.06400 +/- 0.00014
P  11.68                   H 14.0   G  0.15   U  5.0  
q 4.91094593 +/- 0.000329    Q 5.38704112 +/- 0.000251
From 24 observations 2019 Mar. 6-June 8; mean residual 0".31
Residuals in arcseconds: 
190306 G96  .25+  .11-    190603 F52  .19+  .39-    190606 691  .01-  .12+    
190306 G96  .05+  .22-    190603 F52  .28-  .20-    190606 691  .09+  .14-    
190306 G96  .03-  .18+    190603 F52  .01-  .18-    190607 691  .07+  .00     
190306 G96  .37-  .08+    190605 F51  .12-  .15-    190607 691  .78-  .76+    
190410 F51  .13+  .46-    190605 F51  .07-  .24-    190607 691  .94+  .14+    
190410 F51  .00   .24+    190605 F51  .11-  .10-    190608 691  .15-  .23-    
190410 F51  .03+  .42+    190605 F51  .08-  .26-    190608 691  .21+  .31+    
190603 F52  .05-  .23-    190606 691  .02+  .10+    190608 691  .16+  .95+    

Ephemerides (geocentric):
Date (UTC) HH   RA              Dec         delta   r     elong  mag " sig PA
---- -- -- --  -------------   -----------  ------ ------ -----  --- ---- ---
2019 06 15 19  13 04 16.333   +24 11 44.60  5.1256 5.3803  99.1 21.9 .182 162
2019 06 15 20  13 04 16.374   +24 11 30.44  5.1262 5.3803  99.0 21.9 .183 161
2019 06 15 21  13 04 16.416   +24 11 16.28  5.1267 5.3802  99.0 21.9 .184 161
2019 06 15 22  13 04 16.460   +24 11 02.11  5.1273 5.3802  99.0 21.9 .185 161
2019 06 15 23  13 04 16.504   +24 10 47.94  5.1278 5.3802  98.9 21.9 .186 161
2019 06 16 00  13 04 16.550   +24 10 33.75  5.1284 5.3802  98.9 21.9 .186 161
2019 06 16 01  13 04 16.597   +24 10 19.56  5.1289 5.3802  98.9 21.9 .187 161
2019 06 16 02  13 04 16.645   +24 10 05.37  5.1295 5.3802  98.9 21.9 .188 161
2019 06 16 03  13 04 16.694   +24 09 51.16  5.1300 5.3802  98.8 21.9 .189 161
2019 06 16 04  13 04 16.745   +24 09 36.95  5.1306 5.3802  98.8 21.9 .190 161
2019 06 16 05  13 04 16.797   +24 09 22.74  5.1311 5.3802  98.8 21.9 .191 161
2019 06 16 06  13 04 16.850   +24 09 08.51  5.1317 5.3802  98.7 21.9 .191 161
2019 06 16 07  13 04 16.904   +24 08 54.28  5.1322 5.3802  98.7 21.9 .192 161
2019 06 16 08  13 04 16.960   +24 08 40.04  5.1328 5.3802  98.7 21.9 .193 161
2019 06 16 09  13 04 17.016   +24 08 25.80  5.1333 5.3802  98.6 21.9 .194 161
2019 06 16 10  13 04 17.074   +24 08 11.55  5.1339 5.3802  98.6 21.9 .195 161
2019 06 16 11  13 04 17.133   +24 07 57.29  5.1344 5.3802  98.6 21.9 .195 161
2019 06 16 12  13 04 17.194   +24 07 43.03  5.1350 5.3802  98.5 21.9 .196 161
2019 06 16 13  13 04 17.255   +24 07 28.75  5.1355 5.3802  98.5 21.9 .197 161
2019 06 16 14  13 04 17.318   +24 07 14.48  5.1361 5.3802  98.5 21.9 .198 161
2019 06 16 15  13 04 17.382   +24 07 00.19  5.1366 5.3802  98.4 21.9 .199 161
2019 06 16 16  13 04 17.447   +24 06 45.90  5.1372 5.3802  98.4 21.9 .199 161
2019 06 16 17  13 04 17.514   +24 06 31.60  5.1378 5.3802  98.4 21.9 .200 161
2019 06 16 18  13 04 17.581   +24 06 17.29  5.1383 5.3802  98.3 21.9 .201 161
2019 06 16 19  13 04 17.650   +24 06 02.98  5.1389 5.3802  98.3 21.9 .202 161
2019 06 16 20  13 04 17.720   +24 05 48.66  5.1394 5.3802  98.3 21.9 .203 161
2019 06 16 21  13 04 17.791   +24 05 34.33  5.1400 5.3802  98.2 21.9 .204 161
2019 06 16 22  13 04 17.864   +24 05 20.00  5.1405 5.3802  98.2 21.9 .204 161
2019 06 16 23  13 04 17.937   +24 05 05.66  5.1411 5.3802  98.2 21.9 .205 161
2019 06 17 00  13 04 18.012   +24 04 51.32  5.1416 5.3802  98.1 21.9 .206 161
2019 06 17 01  13 04 18.088   +24 04 36.96  5.1422 5.3802  98.1 21.9 .207 161
2019 06 17 02  13 04 18.166   +24 04 22.60  5.1427 5.3802  98.1 21.9 .208 161
2019 06 17 03  13 04 18.244   +24 04 08.24  5.1433 5.3801  98.0 21.9 .209 161
2019 06 17 04  13 04 18.324   +24 03 53.86  5.1438 5.3801  98.0 21.9 .209 161
2019 06 17 05  13 04 18.405   +24 03 39.48  5.1444 5.3801  98.0 21.9 .210 161
2019 06 17 06  13 04 18.487   +24 03 25.10  5.1449 5.3801  97.9 21.9 .211 161
2019 06 17 07  13 04 18.570   +24 03 10.70  5.1455 5.3801  97.9 21.9 .212 161
2019 06 17 08  13 04 18.655   +24 02 56.30  5.1460 5.3801  97.9 21.9 .213 161
2019 06 17 09  13 04 18.741   +24 02 41.90  5.1466 5.3801  97.8 21.9 .213 161
2019 06 17 10  13 04 18.828   +24 02 27.48  5.1472 5.3801  97.8 21.9 .214 160
2019 06 17 11  13 04 18.916   +24 02 13.06  5.1477 5.3801  97.8 21.9 .215 160
2019 06 17 12  13 04 19.005   +24 01 58.64  5.1483 5.3801  97.7 21.9 .216 160
2019 06 17 13  13 04 19.096   +24 01 44.20  5.1488 5.3801  97.7 21.9 .217 160
2019 06 17 14  13 04 19.188   +24 01 29.76  5.1494 5.3801  97.7 21.9 .218 160
2019 06 17 15  13 04 19.281   +24 01 15.32  5.1499 5.3801  97.6 21.9 .218 160
2019 06 17 16  13 04 19.375   +24 01 00.86  5.1505 5.3801  97.6 21.9 .219 160
2019 06 17 17  13 04 19.471   +24 00 46.40  5.1510 5.3801  97.6 21.9 .220 160
2019 06 17 18  13 04 19.567   +24 00 31.94  5.1516 5.3801  97.5 21.9 .221 160